Location: Jefferson
(30.9666°N, 81.7901°W)
Time: 22:57:47
(UTC+00:00)

Hubble Space Telescope - Pass Details

Date: 28 September 2024
Orbit: 504 x 508 km, 28.5° (Epoch: 06 October)

Event Time Altitude Azimuth Distance (km) Brightness Sun altitude
Exits shadow 09:01:10 15° 119° (ESE) 1,394 3.3 -30.1°
Drops below altitude 10° 09:02:14 10° 107° (ESE) 1,698 4.0 -29.9°
Sets 09:04:46 0° 92° (E) 2,582 5.3 -29.3°
